Temperature
20 20 20 20 20 20 20 19 19 19 19 19 18 18 18 18 18 18 18 18 17 17 17 17 17 17 17 17 17 17 17 17 17 17 17 17 17 17 17 17 16 16 16
20 20 20 20 19 19 19 19 19 19 19 19 19 18 18 18 18 18 18 17 17 17 17 17 17 17 17 17 17 17 17 17 16 16 16 16 16 16 16 16 16 16 16
20 20 19 19 19 19 19 19 19 19 19 19 18 18 18 18 18 18 18 17 17 17 17 17 17 16 16 16 16 16 16 16 16 16 16 16 16 16 16 16 16 16 16
20 20 19 19 19 19 19 19 19 19 19 18 18 18 18 18 18 18 17 17 17 17 17 16 16 16 16 16 16 16 16 16 16 16 16 16 15 16 16 15 15 15 15
20 20 19 19 19 19 18 18 18 18 18 18 18 18 18 17 17 17 17 17 17 16 16 16 16 16 16 16 16 16 15 15 15 15 15 15 15 15 15 15 15 15 15
20 20 19 19 19 18 18 18 18 18 18 18 18 18 17 17 17 17 17 17 17 16 16 16 16 16 16 16 16 15 15 15 15 15 15 15 14 15 15 15 14 14 14
20 19 19 19 19 18 18 18 18 18 17 17 17 17 17 17 17 17 17 17 16 16 16 16 15 15 15 15 15 15 15 15 15 15 14 14 14 14 14 14 14 14 14
19 19 19 19 18 18 18 18 18 18 17 17 17 17 17 16 16 16 16 16 16 16 15 15 15 15 15 15 15 15 15 15 14 14 14 14 14 14 14 14 14 14 14
19 19 19 18 18 18 18 18 17 17 17 17 16 16 16 16 16 16 16 16 15 15 15 15 15 15 15 15 14 14 14 14 14 14 14 13 13 13 13 13 13 13 13
18 18 18 18 17 17 17 17 17 17 16 16 16 16 16 16 16 16 15 15 15 15 14 14 14 14 14 14 14 14 14 14 14 13 13 13 13 13 13 13 13 13 13
18 17 17 17 17 17 17 17 17 16 16 16 16 15 15 15 15 15 15 15 15 14 14 14 14 14 14 14 14 14 14 13 13 13 13 13 13 13 13 13 13 13 12
17 17 17 17 17 16 16 16 16 16 16 15 15 15 15 15 15 15 15 15 14 14 14 14 14 14 14 13 13 13 13 13 13 12 12 12 12 12 12 12 12 12 12
16 16 16 16 16 16 16 16 15 15 15 15 15 14 14 14 14 14 14 14 14 14 13 13 13 13 13 13 13 13 12 12 12 12 12 12 12 12 12 12 12 12 12
16 16 15 15 15 15 15 15 15 15 15 15 14 14 14 14 14 14 13 13 13 13 13 13 13 13 13 12 12 12 12 12 12 11 11 11 11 11 12 11 11 12 12
15 15 15 15 14 15 14 14 15 15 14 14 14 14 14 14 14 13 13 13 13 13 13 13 12 12 12 11 12 11 11 11 11 11 11 11 11 11 11 11 11 11 11
15 14 14 14 14 14 14 14 14 14 14 14 14 14 14 14 13 13 13 13 13 12 12 12 12 11 11 11 11 11 11 11 11 11 11 11 11 11 11 11 11 10 10
14 14 14 14 14 14 14 14 13 14 13 13 13 13 13 13 13 13 13 12 12 12 12 11 11 11 11 11 11 11 11 11 11 11 10 10 10 10 10 10 10 10 10
14 14 14 14 14 14 14 13 13 13 13 13 13 13 13 13 13 13 12 12 12 11 11 11 11 11 11 10 10 10 10 10 10 10 10 10 10 10 10 10 10 10 10
14 13 13 13 13 13 13 13 13 13 13 13 13 12 12 12 12 12 12 12 11 11 11 11 10 10 10 10 10 10 10 10 10 10 10 10 10 9 9 9 9 9 9
13 13 13 13 13 13 13 13 13 13 13 13 12 12 12 12 12 11 11 11 11 11 10 10 10 10 10 10 10 9 9 9 9 9 9 9 9 9 9 9 9 9 9
13 13 13 13 13 13 13 13 13 13 12 12 12 12 12 12 11 11 11 11 10 10 10 10 10 10 9 9 9 9 9 9 9 9 9 9 8 8 8 9 9 9 9
13 13 13 13 13 13 13 12 12 12 12 12 12 12 12 11 11 11 11 11 10 10 10 10 10 9 9 9 9 9 9 8 8 8 8 8 8 8 8 8 8 8 8
12 12 12 12 12 12 12 12 12 12 12 12 12 12 11 11 11 11 11 10 10 10 10 10 9 9 9 9 9 8 8 8 8 8 8 8 8 8 7 7 7 7 8
12 12 12 12 12 12 12 12 12 12 11 11 11 11 11 11 11 11 10 10 10 10 9 9 9 9 9 9 8 8 8 8 8 8 8 8 7 7 7 7 7 7 7
12 12 12 12 12 12 12 12 12 12 11 11 11 11 11 11 11 10 10 10 10 9 9 9 9 9 8 8 8 8 8 8 8 7 7 7 7 7 7 7 7 6 6
12 12 12 12 12 12 12 12 12 12 11 11 11 11 11 10 10 10 10 10 9 9 9 9 9 8 8 8 8 8 8 8 7 7 7 7 7 6 6 6 6 6 6
Wind_Speed
11 10 8 9 9 8 6 5 5 4 4 4 4 4 4 4 4 3 3 3 3 3 3 2 2 3 3 3 2 2 2 2 3 3 2 2 1 1 2 4 6 7 7
11 9 9 8 9 9 8 6 5 5 5 4 4 4 4 4 4 4 4 3 3 3 3 2 3 3 3 3 3 3 3 2 3 4 3 2 3 2 2 3 3 4 5
11 10 10 9 9 8 7 7 6 6 5 5 5 5 4 4 4 4 4 4 4 3 3 3 3 3 3 3 3 4 3 4 3 4 4 3 2 2 2 3 3 2 4
10 11 10 10 9 8 8 8 7 7 6 6 5 5 5 4 4 4 4 4 4 3 3 3 3 3 3 4 4 4 4 4 4 3 3 3 2 3 2 2 2 2 3
9 10 10 9 8 7 7 7 7 7 8 6 6 5 5 5 5 4 4 5 4 4 3 2 3 2 1 2 3 3 3 3 4 3 3 2 2 2 2 2 2 2 3
8 8 8 9 8 8 8 8 7 7 6 6 6 6 6 6 4 4 4 4 4 4 3 3 3 3 2 3 3 3 3 4 3 3 2 2 2 2 3 3 3 3 3
5 6 7 7 8 7 8 7 7 6 5 5 5 5 5 4 4 4 5 4 4 4 4 3 4 3 1 1 2 2 3 4 4 3 3 3 3 3 3 3 3 3 4
5 5 5 6 6 6 6 6 5 5 5 4 4 4 3 4 4 4 4 5 5 4 3 3 3 2 2 1 2 1 2 2 2 2 1 2 3 3 3 5 5 5 4
4 4 4 5 5 5 6 6 5 4 4 4 4 4 3 3 3 3 3 4 4 3 2 1 2 2 0 0 1 1 1 1 1 0 1 1 2 3 4 3 3 3 4
3 3 2 3 3 4 4 4 4 4 4 4 3 3 3 3 3 3 3 3 3 2 2 2 1 2 2 1 1 1 1 1 1 1 1 2 2 3 3 2 3 3 3
2 3 3 3 3 4 3 3 4 4 4 4 3 3 3 3 3 3 3 2 3 2 2 2 1 3 3 2 1 1 1 2 2 2 2 2 2 2 2 2 2 2 3
2 3 3 3 3 4 4 4 4 5 4 4 3 3 2 3 4 3 3 3 3 2 1 0 1 3 2 2 1 1 1 3 2 1 2 2 2 2 2 2 2 3 4
2 2 2 2 2 2 4 4 4 4 4 4 4 3 2 3 4 5 3 2 2 1 0 2 3 2 1 1 2 2 2 2 1 2 2 2 1 2 2 2 2 3 4
2 2 2 2 2 2 2 3 3 3 3 3 3 3 3 3 3 2 2 2 1 1 1 2 2 1 1 0 0 1 2 1 1 2 2 2 2 1 1 1 2 2 3
2 2 2 3 3 2 2 1 2 2 3 3 3 2 2 2 1 2 2 2 1 1 1 1 1 1 1 1 1 0 1 0 1 1 1 2 2 2 2 2 2 2 3
3 3 3 3 3 3 3 3 5 3 5 4 3 3 2 4 5 5 4 3 3 2 2 1 1 1 1 1 1 1 1 1 1 1 2 2 2 2 2 2 2 2 3
3 3 2 2 3 3 3 4 3 3 5 5 4 5 5 5 5 4 3 2 2 3 2 2 2 1 1 1 1 1 1 1 1 1 2 2 2 2 2 2 2 3 3
3 2 2 3 3 3 3 3 3 4 3 2 2 4 6 6 5 4 3 2 1 2 2 2 2 1 1 1 1 1 1 1 1 1 2 2 2 2 2 3 2 2 3
3 2 2 2 2 3 2 2 3 3 3 3 3 2 4 4 4 3 3 2 2 2 2 2 1 1 0 0 0 0 1 1 1 2 2 2 2 3 3 3 3 3 3
2 2 1 1 2 3 3 2 2 3 3 3 4 4 4 3 3 3 3 2 2 2 1 1 0 0 1 1 1 1 1 1 1 2 3 3 3 3 4 4 4 3 3
2 2 3 3 2 2 3 3 3 3 3 3 4 4 6 4 4 4 3 3 3 2 1 1 0 0 0 0 0 1 1 2 2 2 3 3 3 4 4 4 4 3 3
2 2 2 2 1 2 2 2 2 2 2 3 3 5 6 4 3 3 3 3 2 2 1 1 1 0 0 0 0 1 1 1 2 2 3 4 3 4 4 4 4 4 4
3 3 2 2 2 2 2 2 2 2 2 2 3 4 5 4 3 2 2 2 2 1 1 1 1 0 1 1 1 1 1 1 2 2 3 4 4 4 4 4 5 5 4
3 4 3 3 3 3 3 3 3 3 3 2 2 2 3 3 2 2 2 2 1 1 1 1 0 0 1 1 1 2 2 2 2 3 4 4 4 4 4 4 5 5 4
2 2 2 2 2 3 3 3 3 2 2 2 2 2 2 2 3 2 2 2 2 1 1 1 1 1 1 1 2 2 2 3 2 3 4 4 5 5 5 5 5 5 5
2 1 1 1 1 2 2 2 3 3 3 3 2 2 2 1 1 1 2 1 1 1 0 0 2 2 1 1 3 3 3 2 2 4 5 4 5 4 5 5 6 5 6
Wind_Direction
185 188 189 187 190 195 198 197 192 201 194 189 186 187 191 191 191 208 223 212 228 249 257 256 276 301 302 303 295 270 254 241 255 266 253 271 273 262 203 214 205 186 193
182 182 187 186 186 191 191 194 190 194 203 195 189 192 201 190 192 207 221 222 217 230 244 250 259 265 275 297 297 284 271 249 248 265 263 264 260 248 241 249 229 217 203
182 184 186 190 189 191 192 190 191 192 201 199 192 202 207 203 204 216 222 228 231 229 236 251 264 273 273 279 283 281 279 274 256 260 261 247 250 258 257 262 257 257 240
185 186 188 190 191 194 194 192 191 194 200 201 199 205 210 207 212 221 229 239 243 240 238 245 257 259 270 278 273 269 270 277 268 264 267 261 262 271 262 248 263 258 263
183 185 185 186 186 192 195 193 196 199 205 198 202 207 209 215 225 220 225 235 236 243 243 243 258 266 283 278 279 296 290 280 274 268 266 280 289 301 292 287 269 262 259
183 186 183 184 188 194 196 195 195 200 205 202 206 207 216 227 209 212 226 242 237 240 245 241 241 227 221 223 251 281 283 273 276 277 270 270 272 288 302 302 304 296 279
182 184 182 187 194 199 203 198 198 199 203 207 215 213 216 211 211 218 224 232 238 238 237 248 267 265 226 233 259 269 286 271 249 253 271 282 281 287 292 295 293 280 267
176 181 176 184 193 195 197 197 197 192 200 209 216 217 216 222 216 223 231 235 242 238 231 237 245 257 276 266 264 283 295 300 278 250 258 287 300 299 277 262 263 266 263
179 175 178 185 189 191 194 192 184 181 191 202 209 209 209 209 205 212 223 243 244 238 231 239 222 201 251 346 234 245 259 264 283 13 5 325 318 319 312 292 280 274 280
170 157 152 164 183 191 188 185 180 187 195 200 196 199 193 175 177 193 213 247 253 243 216 204 169 154 153 154 224 241 264 292 308 283 300 287 269 273 278 274 289 288 290
143 145 154 168 189 188 186 184 182 194 195 195 188 186 162 158 166 185 202 241 255 249 233 218 190 157 146 151 182 227 250 287 283 259 245 246 256 257 256 256 258 273 283
143 151 157 180 207 190 180 191 195 196 193 186 185 187 172 160 160 176 196 227 260 254 256 182 145 169 169 180 182 233 290 295 279 289 283 267 249 253 260 256 248 251 252
142 152 162 181 190 183 187 193 192 190 193 191 186 191 184 169 157 149 176 221 258 276 34 101 120 139 160 165 191 241 270 268 273 286 291 295 287 271 261 254 250 247 260
156 158 167 180 183 169 182 194 185 180 183 183 191 193 188 178 163 156 168 158 152 143 113 117 120 153 193 118 197 243 251 296 310 306 313 317 319 315 287 275 272 272 270
159 169 186 190 176 140 155 168 169 151 171 183 199 201 186 170 180 149 153 161 169 175 160 156 141 130 153 151 145 199 268 303 315 312 312 312 311 312 313 303 280 276 279
188 200 200 190 170 171 166 134 68 90 114 123 135 143 121 138 140 127 122 123 139 146 141 185 193 191 185 184 187 226 255 267 294 307 317 318 315 310 308 313 311 296 289
196 200 202 194 176 182 181 172 152 95 87 93 110 116 127 142 136 130 121 113 145 142 168 223 225 207 188 219 225 258 275 267 254 285 302 308 307 310 308 302 309 312 308
200 189 198 190 185 187 185 180 167 162 152 131 113 140 152 157 152 149 143 118 155 182 211 224 220 210 201 216 239 257 286 302 310 297 304 316 320 320 318 311 304 308 310
204 199 195 188 184 182 167 165 170 165 158 152 136 139 161 156 149 157 155 172 200 213 218 224 229 242 248 215 223 313 309 327 345 332 324 327 327 320 318 316 311 305 299
182 156 173 201 194 171 168 184 178 166 165 162 168 164 156 157 167 166 181 210 229 232 230 225 219 329 4 23 8 335 324 335 342 336 333 329 326 325 320 315 312 306 299
179 178 190 215 215 186 179 181 183 188 189 185 176 163 163 178 185 180 189 204 220 226 236 257 194 161 54 260 306 314 327 343 349 339 330 325 325 323 317 313 316 313 305
189 194 196 221 218 189 180 179 184 191 195 189 167 160 171 194 208 188 187 198 212 208 209 227 239 172 196 212 128 334 324 329 334 337 329 324 323 319 320 321 322 321 317
198 202 196 188 181 155 164 179 186 186 185 195 184 172 184 204 208 193 193 194 195 203 202 199 232 254 83 85 75 80 12 338 337 331 321 316 317 315 315 318 319 322 322
208 211 205 188 171 166 170 182 185 180 183 188 190 188 193 199 211 193 181 177 177 180 149 133 194 351 90 89 81 86 63 32 5 341 325 311 307 310 314 316 312 312 313
224 208 195 191 180 172 179 191 188 189 192 193 194 194 199 201 204 188 174 174 172 176 184 164 149 120 85 52 80 82 76 62 24 342 316 301 297 300 306 305 305 308 310
231 196 174 176 178 183 193 201 198 203 198 192 191 200 199 206 207 168 150 150 154 149 170 168 127 114 110 121 112 103 98 79 351 329 310 290 292 302 313 312 312 311 307
Height
1507 1510 1514 1516 1518 1521 1523 1525 1527 1529 1531 1532 1533 1534 1534 1535 1535 1536 1536 1536 1536 1537 1537 1537 1537 1537 1537 1537 1537 1536 1536 1536 1535 1535 1535 1535 1534 1534 1533 1532 1532 1532 1531
1505 1507 1510 1513 1515 1518 1520 1522 1524 1526 1527 1529 1530 1531 1532 1532 1532 1533 1533 1534 1534 1534 1534 1534 1533 1534 1534 1534 1533 1533 1533 1533 1533 1531 1531 1531 1531 1531 1530 1530 1529 1529 1529
1502 1504 1507 1510 1512 1514 1516 1518 1520 1522 1524 1526 1527 1528 1529 1529 1530 1530 1530 1530 1531 1530 1530 1530 1530 1530 1530 1530 1530 1530 1529 1530 1529 1529 1528 1528 1527 1527 1527 1526 1526 1525 1525
1498 1501 1503 1505 1508 1511 1513 1515 1517 1519 1520 1522 1523 1524 1525 1526 1526 1527 1527 1527 1528 1528 1527 1527 1527 1527 1526 1526 1526 1526 1526 1525 1525 1525 1524 1524 1524 1524 1524 1523 1522 1522 1522
1494 1497 1499 1502 1505 1507 1509 1511 1513 1515 1517 1518 1519 1520 1522 1522 1523 1523 1523 1524 1524 1524 1524 1524 1524 1523 1523 1523 1522 1521 1521 1521 1521 1521 1520 1520 1520 1520 1520 1519 1519 1518 1518
1490 1493 1496 1499 1501 1503 1505 1507 1509 1511 1513 1514 1515 1516 1517 1519 1519 1520 1520 1520 1520 1520 1520 1520 1520 1519 1519 1519 1518 1518 1517 1517 1517 1517 1516 1516 1516 1516 1516 1516 1515 1515 1514
1487 1489 1491 1495 1497 1499 1502 1503 1505 1507 1509 1510 1511 1512 1513 1514 1515 1515 1515 1516 1516 1516 1516 1516 1516 1516 1516 1515 1514 1514 1513 1513 1513 1513 1512 1512 1512 1513 1512 1512 1512 1511 1510
1484 1486 1489 1491 1493 1495 1497 1499 1500 1502 1504 1505 1506 1508 1508 1509 1510 1511 1511 1511 1512 1512 1512 1512 1513 1512 1512 1511 1510 1510 1509 1509 1509 1509 1509 1509 1509 1509 1509 1509 1508 1508 1507
1482 1483 1485 1487 1490 1491 1493 1494 1496 1498 1499 1501 1502 1503 1503 1504 1505 1506 1507 1507 1508 1508 1508 1509 1509 1508 1508 1507 1507 1506 1505 1505 1506 1506 1506 1506 1505 1505 1505 1505 1505 1504 1504
1479 1481 1482 1484 1486 1488 1489 1490 1492 1494 1495 1497 1498 1499 1499 1500 1501 1502 1502 1503 1504 1504 1505 1505 1505 1504 1504 1504 1503 1503 1502 1502 1503 1503 1503 1503 1502 1502 1502 1502 1502 1501 1501
1477 1478 1480 1481 1482 1484 1486 1487 1488 1490 1491 1493 1494 1495 1495 1496 1497 1498 1498 1499 1500 1500 1501 1501 1501 1501 1501 1501 1501 1500 1500 1500 1500 1500 1500 1500 1499 1499 1499 1499 1499 1499 1499
1474 1476 1477 1478 1479 1481 1482 1484 1485 1487 1488 1489 1490 1491 1492 1492 1493 1494 1495 1496 1497 1497 1497 1498 1498 1498 1498 1498 1498 1498 1498 1498 1497 1497 1497 1497 1497 1496 1496 1496 1496 1496 1496
1472 1473 1474 1475 1476 1477 1479 1481 1482 1484 1485 1486 1487 1488 1489 1489 1490 1491 1492 1493 1494 1495 1495 1495 1495 1495 1494 1493 1494 1495 1495 1495 1495 1495 1495 1495 1495 1494 1494 1493 1493 1493 1492
1471 1472 1472 1473 1474 1475 1477 1478 1479 1481 1482 1484 1485 1485 1486 1487 1488 1488 1489 1490 1492 1493 1493 1493 1492 1492 1492 1492 1492 1493 1493 1493 1493 1493 1493 1492 1492 1491 1491 1491 1490 1489 1489
1469 1470 1471 1472 1472 1473 1474 1475 1476 1478 1479 1481 1482 1483 1483 1484 1485 1486 1487 1488 1489 1490 1491 1491 1490 1491 1491 1491 1491 1491 1491 1492 1491 1491 1490 1489 1489 1489 1488 1488 1487 1487 1486
1467 1468 1470 1471 1471 1472 1473 1474 1475 1476 1478 1479 1480 1481 1481 1483 1484 1485 1486 1487 1487 1488 1488 1488 1488 1489 1489 1489 1489 1489 1490 1490 1490 1489 1488 1488 1487 1486 1486 1485 1485 1484 1483
1465 1467 1468 1469 1469 1471 1471 1472 1473 1475 1476 1477 1478 1479 1480 1481 1482 1483 1484 1484 1485 1486 1486 1487 1487 1487 1487 1487 1488 1488 1488 1488 1487 1487 1486 1486 1485 1484 1484 1483 1482 1481 1480
1464 1465 1466 1467 1468 1469 1470 1471 1472 1473 1474 1475 1476 1477 1478 1479 1480 1481 1482 1483 1483 1484 1484 1485 1485 1485 1485 1485 1485 1486 1486 1485 1485 1485 1484 1484 1483 1482 1481 1480 1479 1479 1478
1463 1464 1465 1466 1467 1468 1469 1470 1471 1471 1472 1473 1474 1475 1476 1477 1478 1479 1480 1481 1481 1482 1482 1483 1483 1483 1483 1483 1483 1483 1483 1483 1483 1482 1482 1481 1481 1480 1479 1478 1477 1476 1475
1461 1463 1464 1464 1465 1466 1467 1468 1469 1470 1470 1471 1472 1473 1474 1475 1476 1477 1478 1479 1480 1480 1481 1481 1481 1481 1481 1481 1481 1481 1481 1481 1480 1480 1479 1479 1478 1477 1476 1475 1475 1474 1473
1460 1461 1462 1463 1464 1464 1465 1466 1467 1468 1468 1469 1470 1471 1472 1473 1474 1475 1476 1477 1478 1478 1479 1479 1479 1479 1479 1479 1479 1479 1478 1478 1477 1477 1476 1476 1475 1474 1474 1473 1472 1471 1470
1459 1460 1460 1461 1462 1462 1463 1464 1465 1466 1467 1468 1469 1470 1470 1471 1472 1473 1474 1474 1475 1476 1476 1476 1476 1476 1476 1476 1476 1475 1475 1474 1474 1473 1473 1473 1472 1472 1471 1470 1469 1468 1467
1457 1459 1459 1460 1461 1461 1462 1462 1463 1464 1465 1466 1467 1467 1468 1469 1470 1471 1471 1472 1473 1473 1473 1473 1473 1473 1473 1473 1472 1472 1471 1471 1471 1470 1470 1470 1469 1469 1468 1467 1466 1465 1464
1456 1457 1458 1459 1459 1459 1460 1461 1462 1463 1464 1464 1465 1466 1467 1467 1468 1468 1469 1470 1470 1470 1471 1471 1470 1470 1470 1470 1469 1469 1468 1468 1468 1467 1467 1467 1466 1465 1464 1464 1463 1462 1461
1455 1456 1457 1457 1458 1459 1460 1461 1461 1462 1463 1464 1464 1465 1465 1466 1466 1467 1467 1467 1467 1468 1468 1468 1468 1467 1467 1467 1466 1466 1465 1465 1465 1464 1464 1464 1463 1462 1461 1460 1459 1459 1458
1454 1455 1456 1456 1457 1458 1459 1460 1460 1461 1462 1462 1463 1463 1463 1464 1464 1463 1464 1465 1465 1465 1466 1465 1465 1464 1464 1463 1463 1463 1462 1462 1462 1461 1461 1460 1459 1458 1458 1457 1456 1455 1454